Weather History for Ord, NE

Change the Weather History Date:

Thursday, August 9, 2012

  Actual Average Record
Temperature  
Mean Temperature 72 °F 74 °F  
Max Temperature 86 °F 87 °F 97 °F (2006)
Min Temperature 58 °F 62 °F 55 °F (2001)
Degree Days  
Heating Degree Days 0 0  
Month to date heating degree days 0 0  
Since 1 June heating degree days 16 42  
Since 1 July heating degree days 0 5  
Cooling Degree Days 7 9  
Month to date cooling degree days 107 88  
Year to date cooling degree days 977 588  
Since 1 June cooling degree days 890 547  
Growing Degree Days 22 (Base 50)    
Moisture  
Dew Point 56 °F    
Average Humidity 64    
Maximum Humidity 100    
Minimum Humidity 27    
Precipitation  
Precipitation 0.00 in 0.11 in 1.43 in (2003)
Month to date precipitation 0.63 0.88  
Year to date precipitation 10.76 16.63  
Sea Level Pressure  
Sea Level Pressure 30.09 in    
Wind  
Wind Speed 7 mph (North)    
Max Wind Speed 14 mph    
Max Gust Speed 18 mph    
Visibility 10 miles    
Events      
T = Trace of Precipitation, MM = Missing Value Source: NWS Daily Summary

Daily Weather History Graph

Daily Weather History Graph

Search for Another Location

Airport:

Trip Planner

Search our weather history database for the weather conditions in past years. The results will help you decide how hot, cold, wet, or windy it might be!

Date:

Astronomy

Aug. 09, 2012 Rise Set
Actual Time 6:38 AM CDT 8:42 PM CDT
Civil Twilight 6:08 AM CDT 9:13 PM CDT
Nautical Twilight 5:31 AM CDT 9:50 PM CDT
Astronomical Twilight 4:50 AM CDT 10:30 PM CDT
Moon No Moon Rise 2:28 PM CDT (8/9)
Length of Visible Light 15h 04m
Length of Day
14h 04m
Waning Gibbous, 51% of the Moon is Illuminated
Aug 9
Waning Gibbous
Aug 9
Last Quarter
Aug 17
New
Aug 24
First Quarter
Aug 31
Full

Hourly Weather History & Observations

Time (CDT) Temp. Heat Index Dew Point Humidity Pressure Visibility Wind Dir Wind Speed Gust Speed Precip Events Conditions
12:53 AM 66.9 °F - 62.1 °F 84% 30.06 in 10.0 mi North 6.9 mph - N/A   Clear
1:53 AM 63.0 °F - 61.0 °F 93% 30.08 in 10.0 mi NW 5.8 mph - N/A   Clear
2:53 AM 63.0 °F - 61.0 °F 93% 30.06 in 10.0 mi North 4.6 mph - N/A   Clear
3:53 AM 61.0 °F - 59.0 °F 93% 30.07 in 10.0 mi NW 5.8 mph - N/A   Clear
4:53 AM 60.1 °F - 59.0 °F 96% 30.08 in 10.0 mi WNW 6.9 mph - N/A   Clear
5:53 AM 59.0 °F - 57.9 °F 96% 30.09 in 10.0 mi NW 6.9 mph - N/A   Clear
6:53 AM 57.9 °F - 57.0 °F 97% 30.11 in 7.0 mi NW 5.8 mph - N/A   Clear
7:53 AM 61.0 °F - 59.0 °F 93% 30.13 in 8.0 mi NW 6.9 mph - N/A   Clear
8:53 AM 64.9 °F - 61.0 °F 87% 30.14 in 10.0 mi North 8.1 mph - N/A   Clear
9:53 AM 71.1 °F - 60.1 °F 68% 30.14 in 10.0 mi North 9.2 mph - N/A   Clear
10:53 AM 75.0 °F - 57.9 °F 55% 30.13 in 10.0 mi North 10.4 mph 16.1 mph N/A   Partly Cloudy
11:53 AM 78.1 °F - 53.1 °F 42% 30.12 in 10.0 mi NNE 6.9 mph - N/A   Clear
12:53 PM 81.0 °F - 51.1 °F 35% 30.11 in 10.0 mi North 9.2 mph - N/A   Clear
1:53 PM 84.0 °F - 51.1 °F 32% 30.09 in 10.0 mi NNE 8.1 mph - N/A   Clear
2:53 PM 84.9 °F - 48.9 °F 29% 30.08 in 10.0 mi NNE 9.2 mph - N/A   Clear
3:53 PM 86.0 °F - 48.9 °F 28% 30.07 in 10.0 mi NE 11.5 mph - N/A   Clear
4:53 PM 86.0 °F - 48.9 °F 28% 30.06 in 10.0 mi NNE 10.4 mph - N/A   Clear
5:53 PM 84.9 °F - 50.0 °F 30% 30.05 in 10.0 mi North 5.8 mph - N/A   Clear
6:53 PM 84.0 °F 82.5 °F 53.1 °F 34% 30.05 in 10.0 mi NE 8.1 mph - N/A   Clear
7:53 PM 79.0 °F - 52.0 °F 39% 30.06 in 10.0 mi North 6.9 mph - N/A   Clear
8:53 PM 70.0 °F - 55.9 °F 61% 30.07 in 10.0 mi NNW 3.5 mph - N/A   Clear
9:53 PM 64.9 °F - 55.9 °F 73% 30.08 in 10.0 mi NW 4.6 mph - N/A   Clear
10:53 PM 64.0 °F - 55.9 °F 75% 30.09 in 10.0 mi Calm Calm - N/A   Clear
11:53 PM 62.1 °F - 55.9 °F 80% 30.11 in 10.0 mi WNW 3.5 mph - N/A   Clear